[[[{"header":{"parameterUnit":"kt","parameterCategory":2,"dx":1,"dy":1,"la1":30.253999710083008,"la2":30.299108505249023,"lo1":-89.0895004272461,"lo2":-89.04439544677734,"nx":28,"ny":28,"refTime":"2022-10-24T21:00:00:Z","depth":0,"parameterNumber":1,"parameterNumberName":"U-component_of_WINDS"},"data":[-0.6542,-0.659,-0.663,-0.6704,-0.6753,-0.681,-0.6844,-0.6892,-0.6941,-0.7015,-0.7065,-0.7112,-0.7178,-0.7249,-0.7305,-0.7326,-0.7347,-0.7332,-0.7359,-0.7384,-0.739,-0.7396,-0.7387,-0.7336,-0.7336,-0.7327,-0.7327,-0.7326,-0.6552,-0.66,-0.6652,-0.6729,-0.6773,-0.6811,-0.6876,-0.6911,-0.6962,-0.7023,-0.7076,-0.7145,-0.7205,-0.7279,-0.7344,-0.7368,-0.739,-0.7383,-0.7382,-0.7392,-0.742,-0.741,-0.7363,-0.7363,-0.7363,-0.7363,-0.7363,-0.7363,-0.6581,-0.6609,-0.668,-0.6737,-0.6787,-0.6839,-0.6873,-0.6931,-0.6982,-0.7056,-0.7097,-0.7156,-0.7227,-0.7328,-0.7373,-0.7421,-0.7437,-0.7443,-0.7444,-0.7444,-0.7438,-0.7444,-0.7434,-0.7434,-0.7435,-0.7435,-0.7435,0,-0.6616,-0.6648,-0.6701,-0.6766,-0.681,-0.6865,-0.6923,-0.6945,-0.7031,-0.7071,-0.7132,-0.7174,-0.7259,-0.7321,-0.7393,-0.744,-0.7486,-0.7496,-0.75,-0.748,-0.7452,-0.7467,-0.751,-0.7496,-0.7497,-0.7497,-0.7498,-0.7498,-0.6648,-0.6676,-0.6772,-0.6804,-0.6846,-0.6897,-0.6936,-0.701,-0.7048,-0.7132,-0.7153,-0.7217,-0.7273,-0.7364,-0.7434,-0.7498,-0.7521,-0.7511,-0.7531,-0.751,-0.7521,-0.7518,-0.7521,-0.7506,-0.7505,-0.7504,-0.7503,0,-0.6662,-0.6731,-0.6789,-0.6883,-0.6908,-0.6933,-0.7015,-0.7046,-0.7101,-0.7152,-0.7169,-0.7254,-0.7314,-0.7387,-0.747,-0.7506,-0.7549,-0.7571,-0.7525,-0.7533,-0.753,-0.7529,-0.7512,-0.7514,-0.7567,-0.7567,-0.7566,0,-0.6717,-0.6752,-0.6854,-0.6884,-0.6925,-0.7,-0.7038,-0.709,-0.7153,-0.7195,-0.7258,-0.7296,-0.7384,-0.7432,-0.7485,-0.7534,-0.755,-0.7581,-0.7595,-0.7575,-0.7571,-0.7598,-0.76,-0.7626,-0.7626,-0.7626,-0.7626,0,-0.6732,-0.6829,-0.6878,-0.6912,-0.7017,-0.7039,-0.7084,-0.7157,-0.7195,-0.7257,-0.7283,-0.7349,-0.7386,-0.7437,-0.7505,-0.7516,-0.7566,-0.7596,-0.7598,-0.7596,-0.7606,-0.7604,-0.7571,-0.7626,-0.7626,-0.7626,-0.7626,0,-0.6788,-0.6849,-0.691,-0.6999,-0.7022,-0.7055,-0.7126,-0.7172,-0.7244,-0.728,-0.733,-0.7382,-0.7432,-0.7455,-0.7524,-0.7519,-0.7551,-0.7585,-0.7587,-0.7596,-0.7621,-0.7591,-0.7552,-0.755,-0.7603,-0.7603,-0.7603,0,-0.6785,-0.6867,-0.6933,-0.6991,-0.7039,-0.7107,-0.7146,-0.7208,-0.726,-0.7309,-0.7367,-0.7423,-0.7456,-0.7484,-0.7508,-0.7571,-0.7577,-0.7572,-0.7641,-0.7643,-0.7619,-0.7583,-0.7559,-0.7552,-0.7602,-0.7602,-0.7602,0,-0.6793,-0.6922,-0.6928,-0.697,-0.7066,-0.7107,-0.7151,-0.7224,-0.7252,-0.7317,-0.7356,-0.7437,-0.7465,-0.7511,-0.7562,-0.7583,-0.7575,-0.7612,-0.7615,-0.7602,-0.7608,-0.7584,-0.7583,-0.7604,-0.7604,-0.7604,-0.7601,0,-0.686,-0.6912,-0.6931,-0.7022,-0.7066,-0.7108,-0.7187,-0.7223,-0.7266,-0.7321,-0.7381,-0.7454,-0.7529,-0.7548,-0.7592,-0.7618,-0.7626,-0.7656,-0.7685,-0.7661,-0.7662,-0.7663,-0.7677,-0.7679,-0.768,-0.7681,0,0,-0.684,-0.6916,-0.6989,-0.7036,-0.7077,-0.715,-0.7186,-0.7236,-0.7334,-0.7361,-0.7378,-0.7503,-0.7562,-0.7627,-0.7626,-0.7657,-0.7669,-0.7675,-0.7672,-0.7671,-0.767,-0.7669,-0.7669,-0.7683,-0.7683,-0.7684,-0.7684,0,-0.6882,-0.694,-0.6976,-0.703,-0.7113,-0.717,-0.7178,-0.7274,-0.7311,-0.7372,-0.7432,-0.7477,-0.7576,-0.7631,-0.7672,-0.7668,-0.7712,-0.7685,-0.7656,-0.7681,-0.7678,-0.7676,-0.7674,-0.7673,-0.7687,-0.7687,-0.7686,0,-0.6903,-0.6974,-0.7,-0.7099,-0.7155,-0.7204,-0.7253,-0.7304,-0.7341,-0.7421,-0.7479,-0.7531,-0.7612,-0.7663,-0.7689,-0.7706,-0.7746,-0.7749,-0.7744,-0.7749,-0.7777,-0.7773,-0.777,-0.7811,-0.7811,-0.7811,0,0,-0.6929,-0.6978,-0.7078,-0.7114,-0.7145,-0.7231,-0.7265,-0.7314,-0.7384,-0.7413,-0.7481,-0.7548,-0.7606,-0.7643,-0.7703,-0.7748,-0.777,-0.7761,-0.7755,-0.775,-0.7752,-0.7778,-0.7775,-0.7811,-0.7811,-0.7811,0,0,-0.6942,-0.7059,-0.7091,-0.7143,-0.7207,-0.731,-0.7329,-0.7371,-0.7433,-0.7437,-0.7522,-0.7544,-0.7594,-0.7643,-0.7638,-0.7714,-0.7742,-0.7745,-0.7681,-0.7674,-0.7669,-0.7656,-0.7701,0,0,0,0,0,-0.7026,-0.7044,-0.7072,-0.7093,-0.722,-0.7294,-0.7311,-0.7381,-0.7398,-0.7412,-0.7475,-0.752,-0.7658,-0.7656,-0.7675,-0.768,-0.7816,-0.7815,-0.7814,-0.7743,-0.7735,-0.7729,0,0,0,0,0,0,-0.7035,-0.706,-0.7072,-0.7174,-0.7203,-0.7294,-0.7339,-0.7358,-0.7399,-0.7406,-0.7506,-0.7523,-0.7585,-0.765,-0.7667,-0.767,-0.7696,-0.7816,-0.7815,-0.7814,-0.774,-0.7734,-0.7729,0,0,0,0,0,-0.7042,-0.7062,-0.7248,-0.7174,-0.72,-0.7297,-0.7339,-0.7356,-0.7388,-0.7488,-0.7506,-0.7437,-0.7583,-0.7602,-0.7661,-0.7661,-0.7685,-0.7691,-0.7815,-0.7815,-0.7814,-0.7737,0,0,0,0,0,0,-0.7048,-0.7079,-0.7255,-0.7265,-0.7173,-0.7294,-0.7315,-0.7352,-0.7469,-0.7487,-0.7423,-0.7427,-0.7582,-0.7597,-0.7612,-0.7654,-0.7676,-0.7682,-0.7686,-0.7815,-0.7814,-0.7814,0,0,0,0,0,0,-0.7068,-0.7087,-0.726,-0.7255,-0.7265,-0.729,-0.7309,-0.7369,-0.7469,-0.7397,-0.7405,-0.7423,-0.7561,-0.7594,-0.7605,-0.7697,-0.7669,-0.7675,-0.7679,-0.7681,-0.7814,-0.7814,0,0,0,0,0,0,-0.7077,-0.7094,-0.7253,-0.7261,-0.727,-0.7392,-0.7345,-0.7472,-0.7463,-0.7391,-0.7464,-0.7465,-0.7557,-0.757,-0.76,-0.7687,-0.7694,-0.7669,-0.7673,-0.7676,-0.7678,0,0,0,0,0,0,0,-0.7085,-0.696,-0.7193,-0.7265,-0.7274,-0.7362,-0.7365,-0.7367,-0.7463,-0.7464,-0.7464,-0.7465,-0.7636,-0.7642,-0.7649,-0.7678,0,0,-0.7668,-0.7671,0,0,0,0,0,0,0,0,-0.6955,-0.6959,-0.7193,-0.7195,-0.7198,-0.7362,-0.7365,-0.7367,-0.7463,-0.7464,-0.7464,-0.7464,-0.7638,-0.7643,-0.7648,0,0,0,0,0,0,0,0,0,0,0,0,0,0,0,-0.7194,-0.7195,0,-0.7362,-0.7364,-0.7366,-0.7463,-0.7464,-0.7464,-0.7464,-0.7639,-0.7643,-0.7647,0,0,0,0,0,0,0,0,0,0,0,0,0,0,0,0,0,0,0,0,0,0,0,0,0,0,0,0,0,0,0,0,0,0,0,0,0,0,0,0,0,0,0,0,0,0,0,0,0,0,0,0,0,0,0,0,0,0,0,0,0,0,0,0,0,0,0,0,0]}],[{"header":{"parameterUnit":"kt","parameterCategory":2,"dx":1,"dy":1,"la1":30.253999710083008,"la2":30.299108505249023,"lo1":-89.0895004272461,"lo2":-89.04439544677734,"nx":28,"ny":28,"refTime":"2022-10-24T21:00:00:Z","depth":0,"parameterNumber":2,"parameterNumberName":"V-component_of_WINDS"},"data":[9.9884,10.0032,10.0073,10.0262,10.033,10.0468,10.0531,10.0618,10.0697,10.087,10.0977,10.1036,10.1135,10.1277,10.1399,10.1423,10.1474,10.1497,10.1523,10.1375,10.1358,10.1342,10.1309,10.1506,10.1507,10.1671,10.1672,10.1674,9.9779,9.9847,9.9957,10.0092,10.0189,10.0191,10.03,10.0382,10.0506,10.0605,10.0711,10.0868,10.0998,10.1091,10.1225,10.1301,10.1312,10.1334,10.1331,10.1348,10.1191,10.1155,10.1324,10.1324,10.1324,10.1324,10.1324,10.1323,9.9597,9.9684,9.9788,9.9908,9.9987,10.0078,10.0169,10.0237,10.0348,10.0488,10.0516,10.0658,10.0768,10.0949,10.1021,10.1137,10.1119,10.1159,10.117,10.118,10.1186,10.0951,10.1161,10.116,10.116,10.116,10.116,0,9.9478,9.9506,9.9613,9.9734,9.9824,9.9921,10.0018,10.0076,10.015,10.0239,10.0372,10.0456,10.0624,10.0757,10.0891,10.0958,10.0974,10.0979,10.1007,10.0997,10.0972,10.0992,10.0738,10.0973,10.0971,10.097,10.097,10.0969,9.9302,9.9396,9.9523,9.9594,9.9656,9.9769,9.9845,9.9903,9.9982,10.0112,10.0187,10.0319,10.0427,10.0637,10.0719,10.0846,10.0856,10.0941,10.0875,10.0862,10.0863,10.0858,10.0871,10.0954,10.0956,10.0957,10.0959,0,9.9201,9.9263,9.9422,9.9539,9.9571,9.9669,9.9771,9.986,9.9916,10.0048,10.0082,10.0172,10.0303,10.0371,10.0534,10.0567,10.0738,10.0742,10.0702,10.0708,10.0795,10.0787,10.1056,10.1097,10.0888,10.089,10.0891,0,9.9077,9.9198,9.9286,9.9375,9.9513,9.9566,9.9702,9.9763,9.9854,9.9958,9.9983,10.0081,10.0151,10.0261,10.0309,10.046,10.049,10.0525,10.0537,10.0525,10.0521,10.0572,10.0564,10.0554,10.0553,10.0551,10.055,0,9.8913,9.91,9.9244,9.9297,9.9433,9.9501,9.9561,9.9662,9.9737,9.9844,9.9894,10.0016,10.0084,10.0181,10.024,10.0193,10.0425,10.0373,10.0462,10.0461,10.0511,10.0508,10.0727,10.0549,10.0548,10.0548,10.0547,0,9.8824,9.8926,9.9123,9.9238,9.9285,9.938,9.9502,9.9598,9.9703,9.9738,9.9823,9.9848,9.9981,9.9925,10.0112,10.0035,10.0102,10.0146,10.0154,10.0173,10.0109,10.0228,10.0426,10.0451,10.0188,10.0185,10.0183,0,9.8622,9.8836,9.8881,9.9068,9.9176,9.9195,9.9302,9.9393,9.9447,9.955,9.9612,9.9729,9.97,9.9747,9.983,9.99,10.0,9.9887,10.0044,10.0049,10.0018,10.02,10.0214,10.0374,10.0145,10.0149,10.0152,0,9.8473,9.8633,9.8663,9.8726,9.8851,9.8941,9.9062,9.9188,9.9254,9.9351,9.9458,9.9622,9.9609,9.9684,9.9717,9.98,9.9934,9.9775,9.9779,9.9805,10.0129,10.0143,10.0169,9.9939,9.9943,9.9947,10.0122,0,9.8332,9.8444,9.8525,9.866,9.8739,9.8857,9.8924,9.8999,9.9021,9.9075,9.9231,9.9322,9.9452,9.9497,9.952,9.9686,9.967,9.9654,9.9606,9.9723,9.9783,9.9807,9.9512,9.9511,9.951,9.951,0,0,9.8125,9.8287,9.8331,9.8448,9.8518,9.8534,9.8656,9.8726,9.8867,9.8916,9.8889,9.9133,9.9208,9.9392,9.9433,9.9484,9.9522,9.9477,9.9666,9.9683,9.9699,9.9762,9.9786,9.9508,9.9508,9.9507,9.9507,0,9.8087,9.8156,9.8272,9.8346,9.8456,9.8505,9.8533,9.8646,9.8686,9.8836,9.885,9.8952,9.9142,9.9223,9.9288,9.9456,9.9463,9.949,9.9559,9.9655,9.9673,9.9689,9.9754,9.9776,9.9505,9.9505,9.9505,0,9.7955,9.8035,9.8097,9.8251,9.8323,9.8433,9.8398,9.8513,9.8597,9.8611,9.8759,9.8819,9.893,9.9091,9.9166,9.9145,9.9407,9.9334,9.9341,9.9352,9.9448,9.947,9.9489,9.9234,9.9233,9.9232,0,0,9.7913,9.8016,9.812,9.8247,9.8292,9.8366,9.843,9.8458,9.8554,9.8592,9.8669,9.8764,9.8877,9.895,9.9058,9.9225,9.9255,9.9297,9.931,9.932,9.9336,9.9435,9.9457,9.9227,9.9227,9.9227,0,0,9.7894,9.8018,9.8022,9.8177,9.8266,9.8379,9.8456,9.8464,9.8567,9.8561,9.8616,9.8644,9.8796,9.8854,9.8784,9.9044,9.8995,9.9013,9.9,9.9017,9.903,9.9014,9.8763,0,0,0,0,0,9.7887,9.8002,9.8004,9.804,9.8234,9.8377,9.8403,9.8449,9.8414,9.8474,9.854,9.8541,9.8829,9.8768,9.8804,9.8882,9.9167,9.9178,9.9188,9.9211,9.9228,9.9243,0,0,0,0,0,0,9.7901,9.7944,9.8001,9.8117,9.8161,9.8373,9.8325,9.834,9.8408,9.8406,9.8528,9.8545,9.8589,9.8752,9.8785,9.8858,9.8753,9.9171,9.918,9.9189,9.9217,9.9231,9.9243,0,0,0,0,0,9.7913,9.7948,9.8247,9.8116,9.8155,9.8243,9.832,9.8333,9.8387,9.8488,9.8504,9.8415,9.8589,9.862,9.8772,9.8842,9.8731,9.8743,9.9177,9.9184,9.9191,9.9224,0,0,0,0,0,0,9.7922,9.7962,9.8255,9.8269,9.8075,9.8232,9.8258,9.8327,9.8465,9.8482,9.8377,9.8374,9.8591,9.8615,9.8638,9.8834,9.8713,9.8725,9.8732,9.9183,9.9188,9.9193,0,0,0,0,0,0,9.7943,9.7973,9.8262,9.8208,9.8215,9.8222,9.8245,9.8381,9.8467,9.8347,9.8348,9.8374,9.8558,9.8612,9.863,9.8839,9.8699,9.8711,9.8719,9.8724,9.9187,9.9192,0,0,0,0,0,0,9.7957,9.7982,9.8204,9.821,9.8217,9.8373,9.8343,9.8541,9.8416,9.8341,9.8406,9.8402,9.8555,9.8574,9.8624,9.8826,9.8836,9.87,9.8708,9.8713,9.8717,0,0,0,0,0,0,0,9.7968,9.7785,9.8174,9.8213,9.8218,9.8395,9.8398,9.8402,9.8415,9.8411,9.8407,9.8404,9.8634,9.8647,9.8659,9.8815,0,0,9.8699,9.8704,0,0,0,0,0,0,0,0,9.7775,9.7783,9.8175,9.8178,9.818,9.8395,9.8398,9.8401,9.8414,9.8411,9.8408,9.8405,9.8637,9.8648,9.8658,0,0,0,0,0,0,0,0,0,0,0,0,0,0,0,9.8175,9.8177,0,9.8396,9.8398,9.8401,9.8414,9.8411,9.8409,9.8406,9.864,9.8649,9.8657,0,0,0,0,0,0,0,0,0,0,0,0,0,0,0,0,0,0,0,0,0,0,0,0,0,0,0,0,0,0,0,0,0,0,0,0,0,0,0,0,0,0,0,0,0,0,0,0,0,0,0,0,0,0,0,0,0,0,0,0,0,0,0,0,0,0,0,0,0]}]]]